This is the latest recevied weather packets stored in our database for station/object EW8324. If no packets are shown the sender has not sent any weather packets the latest 10 day(s).
| Time | Temp. | Humidity | Pressure | Rain* | Wind** | Luminosity | Snow |
|---|---|---|---|---|---|---|---|
| 1777915803 | 26.67° C | 54% | 1010.2 hPa | 0 mm | - | 237 W/m² | - |
| 1777915504 | 27.22° C | 54% | 1010.4 hPa | 0 mm | - | 816 W/m² | - |
| 1777915204 | 27.22° C | 54% | 1010.4 hPa | 0 mm | - | 422 W/m² | - |
| 1777914900 | 27.22° C | 52% | 1010.6 hPa | 0 mm | - | 856 W/m² | - |
| 1777914597 | 27.22° C | 55% | 1010.7 hPa | 0 mm | - | 962 W/m² | - |
| 1777914360 | 27.22° C | 56% | 1010.6 hPa | 0 mm | - | 876 W/m² | - |
| 1777914004 | 26.67° C | 55% | 1010.6 hPa | 0 mm | - | 976 W/m² | - |
| 1777913701 | 26.67° C | 56% | 1010.8 hPa | 0 mm | - | 914 W/m² | - |
| 1777913463 | 26.67° C | 57% | 1011 hPa | 0 mm | - | 897 W/m² | - |
| 1777913101 | 26.67° C | 57% | 1010.9 hPa | 0 mm | - | 934 W/m² | - |
| 1777912801 | - | - | 1011 hPa | 0 mm | - | - | - |
| 1777912498 | 26.67° C | 55% | 1011.1 hPa | 0 mm | - | - | - |
| 1777912262 | 26.67° C | 55% | 1011.2 hPa | 0 mm | - | - | - |
| 1777911896 | - | - | 1011.2 hPa | 0 mm | - | - | - |
| 1777911658 | - | - | 1011.3 hPa | 0 mm | - | - | - |
| 1777911300 | 26.67° C | 59% | 1011.5 hPa | 0 mm | - | - | - |
| 1777911058 | 26.67° C | 59% | 1011.4 hPa | 0 mm | - | - | - |
| 1777910695 | 26.11° C | 59% | 1011.5 hPa | 0 mm | - | - | - |
| 1777910398 | 26.11° C | 59% | 1011.4 hPa | 0 mm | - | 840 W/m² | - |
| 1777910155 | 26.11° C | 57% | 1011.4 hPa | 0 mm | - | 746 W/m² | - |
| 1777909794 | 26.11° C | 58% | 1011.5 hPa | 0 mm | - | 726 W/m² | - |
| 1777909496 | 25.56° C | 57% | 1011.5 hPa | 0 mm | - | 717 W/m² | - |
| 1777909194 | 25.56° C | 57% | 1011.6 hPa | 0 mm | - | 728 W/m² | - |
| 1777908894 | 25.56° C | 58% | 1011.6 hPa | 0.25 mm | - | 705 W/m² | - |
| 1777908654 | 25.56° C | 60% | 1011.7 hPa | 0.25 mm | - | 721 W/m² | - |
* Rain latest hour (hover to see other rain measurements)
** Current wind speed in m/s (hover to see current wind gust speed)